When you browse on this site, cookies collect data to enhance your experience and personalize the content and advertising you see.
Visit our Privacy Policy to learn more. By continuing to use the site, you agree to this use of cookies and data.

Météo par heure à Bamenda

Ce jour, 4 Juillet, Samedi

Heure Température Précipitation Vent Pression Humidité
00:00 +19°C° 0.6 mm 1 m/s 641 mmHg 95%
01:00 +19°C° 0.6 mm 1 m/s 641 mmHg 96%
02:00 +19°C° 0.7 mm 1 m/s 640 mmHg 96%
03:00 +19°C° 0.7 mm 1 m/s 640 mmHg 96%
04:00 +19°C° 0.7 mm 1 m/s 640 mmHg 96%
05:00 +19°C° 0.3 mm 1 m/s 640 mmHg 96%
06:00 +19°C° 0.3 mm 1 m/s 641 mmHg 96%
07:00 +19°C° 0.3 mm 1 m/s 641 mmHg 96%
08:00 +20°C° 0.8 mm 1 m/s 641 mmHg 94%
09:00 +21°C° 0.8 mm 1 m/s 642 mmHg 91%
10:00 +23°C° 0.8 mm 1 m/s 643 mmHg 89%
11:00 +23°C° 1.4 mm 1 m/s 642 mmHg 87%
12:00 +22°C° 1.4 mm 0 m/s 642 mmHg 86%
13:00 +23°C° 1.4 mm 0 m/s 642 mmHg 84%
14:00 +24°C° 1.9 mm 1 m/s 642 mmHg 86%
15:00 +24°C° 1.9 mm 1 m/s 641 mmHg 87%
16:00 +23°C° 1.9 mm 1 m/s 641 mmHg 88%
17:00 +22°C° 1.5 mm 1 m/s 640 mmHg 90%
18:00 +21°C° 1.5 mm 1 m/s 640 mmHg 93%
19:00 +20°C° 1.5 mm 1 m/s 640 mmHg 95%
20:00 +19°C° 1.1 mm 1 m/s 640 mmHg 95%
21:00 +19°C° 1.1 mm 1 m/s 641 mmHg 96%
22:00 +19°C° 1.1 mm 1 m/s 641 mmHg 96%
23:00 +19°C° 1 mm 1 m/s 641 mmHg 96%

Demain, 5 Juillet, Dimanche

Heure Température Précipitation Vent Pression Humidité
00:00 +19°C° 1 mm 1 m/s 641 mmHg 96%
01:00 +19°C° 1 mm 1 m/s 641 mmHg 96%
02:00 +17°C° 1.6 mm 0 m/s 641 mmHg 97%
03:00 +17°C° 1.6 mm 0 m/s 641 mmHg 97%
04:00 +17°C° 1.6 mm 0 m/s 640 mmHg 98%
05:00 +17°C° 0.6 mm 0 m/s 641 mmHg 98%
06:00 +17°C° 0.6 mm 0 m/s 641 mmHg 98%
07:00 +19°C° 0.6 mm 1 m/s 641 mmHg 98%
08:00 +20°C° 0.9 mm 1 m/s 642 mmHg 96%
09:00 +21°C° 0.9 mm 1 m/s 642 mmHg 94%
10:00 +22°C° 0.9 mm 1 m/s 643 mmHg 92%
11:00 +22°C° 1.7 mm 1 m/s 643 mmHg 92%
12:00 +22°C° 1.7 mm 1 m/s 642 mmHg 92%
13:00 +22°C° 1.7 mm 1 m/s 642 mmHg 92%
14:00 +22°C° 1.7 mm 1 m/s 641 mmHg 93%
15:00 +21°C° 1.7 mm 1 m/s 641 mmHg 94%
16:00 +21°C° 1.7 mm 1 m/s 640 mmHg 95%
17:00 +20°C° 0.9 mm 1 m/s 640 mmHg 96%
18:00 +20°C° 0.9 mm 1 m/s 640 mmHg 97%
19:00 +19°C° 0.9 mm 1 m/s 640 mmHg 98%
20:00 +19°C° 0.9 mm 1 m/s 641 mmHg 98%
21:00 +19°C° 0.9 mm 1 m/s 641 mmHg 98%
22:00 +19°C° 0.9 mm 1 m/s 641 mmHg 98%
23:00 +19°C° 1.3 mm 1 m/s 641 mmHg 98%

Après-demain, 6 Juillet, Lundi

Heure Température Précipitation Vent Pression Humidité
00:00 +19°C° 1.3 mm 1 m/s 641 mmHg 98%
01:00 +18°C° 1.3 mm 1 m/s 641 mmHg 99%
02:00 +18°C° 0.8 mm 1 m/s 641 mmHg 99%
03:00 +18°C° 0.8 mm 1 m/s 640 mmHg 99%
04:00 +16°C° 0.8 mm 0 m/s 640 mmHg 99%
05:00 +16°C° 1 mm 0 m/s 640 mmHg 98%
06:00 +16°C° 1 mm 0 m/s 641 mmHg 98%
07:00 +16°C° 1 mm 0 m/s 641 mmHg 98%
08:00 +17°C° 1.2 mm 0 m/s 641 mmHg 98%
09:00 +17°C° 1.2 mm 0 m/s 642 mmHg 97%
10:00 +17°C° 1.2 mm 0 m/s 642 mmHg 97%
11:00 +19°C° 0.9 mm 1 m/s 642 mmHg 96%
12:00 +20°C° 0.9 mm 1 m/s 642 mmHg 96%
13:00 +20°C° 0.9 mm 1 m/s 641 mmHg 96%
14:00 +20°C° 0.4 mm 1 m/s 641 mmHg 96%
15:00 +20°C° 0.4 mm 1 m/s 640 mmHg 96%
16:00 +20°C° 0.4 mm 1 m/s 640 mmHg 96%
17:00 +19°C° 0.1 mm 1 m/s 640 mmHg 96%
18:00 +17°C° 0.1 mm 0 m/s 640 mmHg 97%
19:00 +16°C° 0.1 mm 0 m/s 640 mmHg 98%
20:00 +18°C° 0 mm 1 m/s 640 mmHg 98%
21:00 +18°C° 0 mm 1 m/s 640 mmHg 98%
22:00 +18°C° 0 mm 1 m/s 641 mmHg 97%
23:00 +16°C° 0 mm 1 m/s 640 mmHg 97%

7 Juillet, Mardi

Heure Température Précipitation Vent Pression Humidité
00:00 +16°C° 0 mm 1 m/s 640 mmHg 97%
01:00 +16°C° 0 mm 1 m/s 640 mmHg 97%
02:00 +16°C° 0 mm 1 m/s 640 mmHg 97%
03:00 +16°C° 0 mm 1 m/s 640 mmHg 97%
04:00 +16°C° 0 mm 1 m/s 640 mmHg 97%
05:00 +16°C° 0 mm 1 m/s 640 mmHg 97%
06:00 +18°C° 0 mm 1 m/s 640 mmHg 97%
07:00 +18°C° 0 mm 1 m/s 640 mmHg 97%
08:00 +19°C° 0.1 mm 1 m/s 641 mmHg 94%
09:00 +18°C° 0.1 mm 0 m/s 642 mmHg 91%
10:00 +19°C° 0.1 mm 0 m/s 643 mmHg 89%
11:00 +22°C° 0.9 mm 1 m/s 642 mmHg 88%
12:00 +23°C° 0.9 mm 1 m/s 642 mmHg 87%
13:00 +23°C° 0.9 mm 1 m/s 641 mmHg 87%
14:00 +23°C° 2.1 mm 1 m/s 641 mmHg 89%
15:00 +20°C° 2.1 mm 0 m/s 640 mmHg 92%
16:00 +19°C° 2.1 mm 0 m/s 639 mmHg 94%
17:00 +18°C° 2.7 mm 0 m/s 640 mmHg 95%
18:00 +18°C° 2.7 mm 0 m/s 640 mmHg 96%
19:00 +17°C° 2.7 mm 0 m/s 640 mmHg 98%
20:00 +17°C° 1.2 mm 0 m/s 640 mmHg 98%
21:00 +17°C° 1.2 mm 0 m/s 641 mmHg 98%
22:00 +16°C° 1.2 mm 0 m/s 641 mmHg 98%
23:00 +18°C° 0.2 mm 1 m/s 641 mmHg 98%

8 Juillet, Mercredi

Heure Température Précipitation Vent Pression Humidité
00:00 +18°C° 0.2 mm 1 m/s 640 mmHg 98%
01:00 +18°C° 0.2 mm 1 m/s 640 mmHg 98%
02:00 +18°C° 0 mm 1 m/s 640 mmHg 98%
03:00 +18°C° 0 mm 1 m/s 640 mmHg 98%
04:00 +18°C° 0 mm 1 m/s 640 mmHg 98%
05:00 +18°C° 0.2 mm 1 m/s 640 mmHg 98%
06:00 +18°C° 0.2 mm 1 m/s 640 mmHg 98%
07:00 +18°C° 0.2 mm 1 m/s 641 mmHg 98%
08:00 +17°C° 0 mm 0 m/s 641 mmHg 95%
09:00 +18°C° 0 mm 0 m/s 642 mmHg 93%
10:00 +19°C° 0 mm 0 m/s 642 mmHg 91%
11:00 +20°C° 0.5 mm 0 m/s 642 mmHg 87%
12:00 +23°C° 0.5 mm 1 m/s 642 mmHg 84%
13:00 +24°C° 0.5 mm 1 m/s 641 mmHg 81%
14:00 +24°C° 2.4 mm 1 m/s 641 mmHg 84%
15:00 +23°C° 2.4 mm 1 m/s 640 mmHg 87%
16:00 +23°C° 2.4 mm 1 m/s 640 mmHg 90%
17:00 +20°C° 1.4 mm 0 m/s 640 mmHg 92%
18:00 +19°C° 1.4 mm 0 m/s 640 mmHg 94%
19:00 +18°C° 1.4 mm 0 m/s 640 mmHg 96%
20:00 +17°C° 0.7 mm 0 m/s 640 mmHg 96%
21:00 +17°C° 0.7 mm 0 m/s 640 mmHg 96%
22:00 +17°C° 0.7 mm 0 m/s 641 mmHg 97%
23:00 +17°C° 0.4 mm 0 m/s 641 mmHg 97%

9 Juillet, Jeudi

Heure Température Précipitation Vent Pression Humidité
00:00 +17°C° 0.4 mm 0 m/s 640 mmHg 97%
01:00 +16°C° 0.4 mm 0 m/s 640 mmHg 97%
02:00 +16°C° 0.1 mm 0 m/s 640 mmHg 97%
03:00 +16°C° 0.1 mm 0 m/s 640 mmHg 97%
04:00 +16°C° 0.1 mm 0 m/s 640 mmHg 97%
05:00 +16°C° 0.1 mm 0 m/s 640 mmHg 97%
06:00 +16°C° 0.1 mm 0 m/s 641 mmHg 97%
07:00 +17°C° 0.1 mm 0 m/s 641 mmHg 97%
08:00 +18°C° 0.9 mm 0 m/s 642 mmHg 94%
09:00 +20°C° 0.9 mm 0 m/s 642 mmHg 91%
10:00 +21°C° 0.9 mm 0 m/s 643 mmHg 88%
11:00 +21°C° 2.7 mm 0 m/s 643 mmHg 89%
12:00 +23°C° 2.7 mm 1 m/s 642 mmHg 89%
13:00 +23°C° 2.7 mm 1 m/s 641 mmHg 89%
14:00 +23°C° 1.8 mm 1 m/s 641 mmHg 91%
15:00 +22°C° 1.8 mm 1 m/s 640 mmHg 92%
16:00 +21°C° 1.8 mm 1 m/s 640 mmHg 93%
17:00 +21°C° 2.1 mm 1 m/s 640 mmHg 95%
18:00 +20°C° 2.1 mm 1 m/s 640 mmHg 96%
19:00 +19°C° 2.1 mm 1 m/s 640 mmHg 98%
20:00 +19°C° 4 mm 1 m/s 640 mmHg 98%
21:00 +19°C° 4 mm 1 m/s 641 mmHg 98%
22:00 +19°C° 4 mm 1 m/s 641 mmHg 98%
23:00 +19°C° 2.9 mm 1 m/s 641 mmHg 98%
Voir plus